This is the latest recevied weather packets stored in our database for station/object NO4D. If no packets are shown the sender has not sent any weather packets the latest 1 day(s).
| Time | Temp. | Humidity | Pressure | Rain* | Wind** | Luminosity | Snow |
|---|---|---|---|---|---|---|---|
| 1778069409 | 18.89° C | 80% | 1014.2 hPa | 0 mm | 1.34 m/s, 201° | 71 W/m² | - |
| 1778069108 | 18.33° C | 80% | 1014.4 hPa | 0 mm | 0.45 m/s, 201° | 63 W/m² | - |
| 1778068804 | 18.33° C | 80% | 1014.4 hPa | 0 mm | 1.34 m/s, 215° | 71 W/m² | - |
| 1778068502 | 18.33° C | 81% | 1014.4 hPa | 0 mm | 0.89 m/s, 188° | 79 W/m² | - |
| 1778068201 | 18.33° C | 81% | 1014.8 hPa | 0 mm | 1.79 m/s, 250° | 63 W/m² | - |
| 1778067897 | 18.33° C | 81% | 1014.7 hPa | 0 mm | 1.34 m/s, 243° | 41 W/m² | - |
| 1778067596 | 17.78° C | 82% | 1014.8 hPa | 0 mm | 0.89 m/s, 203° | 18 W/m² | - |
| 1778067293 | 17.78° C | 82% | 1014.6 hPa | 0 mm | 0.89 m/s, 206° | 19 W/m² | - |
| 1778066990 | 17.78° C | 82% | 1014.7 hPa | 0 mm | 1.34 m/s, 261° | 24 W/m² | - |
| 1778066687 | 17.78° C | 82% | 1014.4 hPa | 0 mm | 1.79 m/s, 227° | 27 W/m² | - |
| 1778066384 | 17.78° C | 82% | 1014.3 hPa | 0 mm | 1.34 m/s, 249° | 24 W/m² | - |
| 1778066083 | 17.78° C | 82% | 1014.1 hPa | 0 mm | 0.45 m/s, 225° | 29 W/m² | - |
| 1778065779 | 17.78° C | 82% | 1014 hPa | 0 mm | 0.45 m/s, 193° | 21 W/m² | - |
| 1778065477 | 17.78° C | 82% | 1014 hPa | 0 mm | 0.89 m/s, 197° | 13 W/m² | - |
| 1778065173 | 17.78° C | 82% | 1013.8 hPa | 0 mm | 0.45 m/s, 202° | 9 W/m² | - |
| 1778064870 | 17.78° C | 82% | 1013.7 hPa | 0 mm | 2.24 m/s, 204° | 5 W/m² | - |
| 1778064567 | 17.22° C | 83% | 1013.9 hPa | 0 mm | 2.24 m/s, 204° | 5 W/m² | - |
| 1778064265 | 17.22° C | 83% | 1013.7 hPa | 0 mm | 0 m/s | 4 W/m² | - |
| 1778063963 | 17.22° C | 83% | 1013.5 hPa | 0 mm | 1.79 m/s, 219° | 1 W/m² | - |
| 1778063660 | 17.22° C | 83% | 1013.9 hPa | 0 mm | 0.89 m/s, 215° | 0 W/m² | - |
| 1778063357 | 17.22° C | 84% | 1013.4 hPa | 0 mm | 1.34 m/s, 240° | 0 W/m² | - |
| 1778063055 | 17.22° C | 84% | 1012.9 hPa | 0 mm | 0.45 m/s, 193° | 0 W/m² | - |
| 1778062752 | 17.22° C | 84% | 1013.6 hPa | 0 mm | 2.24 m/s, 192° | 0 W/m² | - |
| 1778062448 | 17.22° C | 84% | 1013 hPa | 0 mm | 2.24 m/s, 208° | 0 W/m² | - |
| 1778062146 | 17.22° C | 84% | 1013.1 hPa | 0 mm | 0.45 m/s, 179° | 0 W/m² | - |
* Rain latest hour (hover to see other rain measurements)
** Current wind speed in m/s (hover to see current wind gust speed)